Overview Statistics Trail Chart Weather Telemetry Raw packets
 

This is the latest recevied weather packets stored in our database for station/object KC9DRE. If no packets are shown the sender has not sent any weather packets the latest 10 day(s).

<< 80 81 82 83 84 85 86 >>
Time Temp. Humidity Pressure Rain* Wind** Luminosity Snow
1777318305 17.78° C 91% 1012.3 hPa 0 mm - 14 W/m² -
1777318002 18.33° C 91% 1012.6 hPa 0 mm - 10 W/m² -
1777317699 17.78° C 91% 1012.1 hPa 0 mm - 17 W/m² -
1777317397 17.78° C 92% 1011.7 hPa 0 mm - 19 W/m² -
1777317092 17.78° C 92% 1013 hPa 0 mm - 20 W/m² -
1777316790 17.78° C 92% 1012.9 hPa 0 mm - 19 W/m² -
1777316486 17.78° C 91% 1013.1 hPa 0 mm - 21 W/m² -
1777316183 18.33° C 91% 1013.3 hPa 0 mm - 19 W/m² -
1777315881 18.33° C 90% 1013 hPa 0 mm - 22 W/m² -
1777315579 18.33° C 88% 1012.9 hPa 0 mm - 25 W/m² -
1777315277 18.89° C 86% 1012.7 hPa 0 mm - 25 W/m² -
1777314974 19.44° C 83% 1013.1 hPa 0 mm - 26 W/m² -
1777314669 19.44° C 81% 1012.8 hPa 0 mm - 27 W/m² -
1777314366 19.44° C 79% 1012.8 hPa 0 mm - 30 W/m² -
1777314064 20° C 78% 1013.1 hPa 0 mm - 40 W/m² -
1777313761 20° C 78% 1013.2 hPa 0 mm - 37 W/m² -
1777313458 20° C 77% 1013.1 hPa 0 mm - 37 W/m² -
1777313155 20° C 75% 1013 hPa 0 mm - 35 W/m² -
1777312851 20.56° C 75% 1012.7 hPa 0 mm - 55 W/m² -
1777312548 20.56° C 74% 1012.8 hPa 0 mm - 80 W/m² -
1777312245 20.56° C 74% 1012.7 hPa 0 mm - 92 W/m² -
1777311942 21.11° C 74% 1013.1 hPa 0 mm - 95 W/m² -
1777311639 21.11° C 73% 1013.6 hPa 0 mm - 110 W/m² -
1777311337 21.11° C 72% 1014.2 hPa 0 mm - 136 W/m² -
1777311034 21.11° C 72% 1014.4 hPa 0 mm - 153 W/m² -

* Rain latest hour (hover to see other rain measurements)
** Current wind speed in m/s (hover to see current wind gust speed)